When you browse on this site, cookies collect data to enhance your experience and personalize the content and advertising you see.
Visit our Privacy Policy to learn more. By continuing to use the site, you agree to this use of cookies and data.
  • In Lithuania
  • List of Countries
  • For 7 days
  • Water Temperature
  • Satellite Maps
  • Weather Map
  • Weather Widgets
  • user-avatar
    Login

    Hourly Weather Graz

    Today, 20 March, Wednesday

    Time Temperature Precipitation Wind Pressure Humidity
    00:00 +2°C° 0 mm 1 mps 733 mmHg 78%
    01:00 +2°C° 0 mm 1 mps 733 mmHg 78%
    02:00 +1°C° 0 mm 1 mps 733 mmHg 78%
    03:00 +1°C° 0 mm 1 mps 733 mmHg 79%
    04:00 +1°C° 0 mm 1 mps 733 mmHg 79%
    05:00 +1°C° 0 mm 1 mps 734 mmHg 77%
    06:00 +2°C° 0 mm 1 mps 734 mmHg 75%
    07:00 +2°C° 0 mm 1 mps 735 mmHg 73%
    08:00 +4°C° 0 mm 1 mps 735 mmHg 62%
    09:00 +5°C° 0 mm 2 mps 735 mmHg 51%
    10:00 +7°C° 0 mm 2 mps 735 mmHg 40%
    11:00 +8°C° 0 mm 2 mps 735 mmHg 39%
    12:00 +9°C° 0 mm 2 mps 735 mmHg 37%
    13:00 +10°C° 0 mm 2 mps 735 mmHg 35%
    14:00 +9°C° 0 mm 2 mps 735 mmHg 37%
    15:00 +9°C° 0 mm 2 mps 735 mmHg 39%
    16:00 +9°C° 0 mm 2 mps 735 mmHg 41%
    17:00 +8°C° 0 mm 1 mps 735 mmHg 49%
    18:00 +6°C° 0 mm 1 mps 735 mmHg 57%
    19:00 +3°C° 0 mm 0 mps 735 mmHg 65%
    20:00 +3°C° 0 mm 0 mps 736 mmHg 68%
    21:00 +3°C° 0 mm 1 mps 736 mmHg 70%
    22:00 +3°C° 0 mm 1 mps 737 mmHg 73%
    23:00 +3°C° 0 mm 1 mps 737 mmHg 74%

    Tomorrow, 21 March, Thursday

    Time Temperature Precipitation Wind Pressure Humidity
    00:00 +2°C° 0 mm 1 mps 737 mmHg 75%
    01:00 +2°C° 0 mm 1 mps 737 mmHg 76%
    02:00 +2°C° 0 mm 1 mps 737 mmHg 76%
    03:00 +2°C° 0 mm 1 mps 737 mmHg 76%
    04:00 +2°C° 0 mm 1 mps 736 mmHg 76%
    05:00 +2°C° 0 mm 1 mps 736 mmHg 73%
    06:00 +2°C° 0 mm 1 mps 737 mmHg 70%
    07:00 +3°C° 0 mm 1 mps 737 mmHg 67%
    08:00 +5°C° 0 mm 1 mps 737 mmHg 58%
    09:00 +8°C° 0 mm 1 mps 737 mmHg 48%
    10:00 +11°C° 0 mm 1 mps 737 mmHg 39%
    11:00 +11°C° 0 mm 1 mps 737 mmHg 37%
    12:00 +12°C° 0 mm 1 mps 736 mmHg 35%
    13:00 +13°C° 0 mm 1 mps 736 mmHg 33%
    14:00 +13°C° 0 mm 1 mps 736 mmHg 34%
    15:00 +13°C° 0 mm 1 mps 735 mmHg 35%
    16:00 +12°C° 0 mm 1 mps 735 mmHg 36%
    17:00 +10°C° 0 mm 1 mps 735 mmHg 44%
    18:00 +7°C° 0 mm 0 mps 735 mmHg 52%
    19:00 +5°C° 0 mm 0 mps 735 mmHg 59%
    20:00 +4°C° 0 mm 0 mps 735 mmHg 61%
    21:00 +4°C° 0 mm 0 mps 735 mmHg 62%
    22:00 +4°C° 0 mm 0 mps 736 mmHg 63%
    23:00 +3°C° 0 mm 0 mps 736 mmHg 64%

    Day after tomorrow, 22 March, Friday

    Time Temperature Precipitation Wind Pressure Humidity
    00:00 +4°C° 0 mm 1 mps 735 mmHg 64%
    01:00 +4°C° 0 mm 1 mps 735 mmHg 65%
    02:00 +4°C° 0 mm 1 mps 735 mmHg 65%
    03:00 +3°C° 0 mm 1 mps 735 mmHg 64%
    04:00 +3°C° 0 mm 1 mps 735 mmHg 64%
    05:00 +4°C° 0 mm 1 mps 735 mmHg 62%
    06:00 +4°C° 0 mm 1 mps 735 mmHg 59%
    07:00 +5°C° 0 mm 1 mps 735 mmHg 57%
    08:00 +7°C° 0 mm 1 mps 735 mmHg 50%
    09:00 +10°C° 0 mm 1 mps 735 mmHg 42%
    10:00 +13°C° 0 mm 1 mps 735 mmHg 35%
    11:00 +14°C° 0 mm 1 mps 734 mmHg 33%
    12:00 +15°C° 0 mm 1 mps 734 mmHg 32%
    13:00 +16°C° 0 mm 1 mps 733 mmHg 30%
    14:00 +15°C° 0 mm 1 mps 733 mmHg 32%
    15:00 +15°C° 0 mm 1 mps 733 mmHg 34%
    16:00 +15°C° 0 mm 1 mps 732 mmHg 35%
    17:00 +13°C° 0 mm 1 mps 732 mmHg 43%
    18:00 +9°C° 0 mm 0 mps 732 mmHg 52%
    19:00 +7°C° 0 mm 0 mps 732 mmHg 60%
    20:00 +6°C° 0 mm 0 mps 732 mmHg 62%
    21:00 +6°C° 0 mm 0 mps 732 mmHg 63%
    22:00 +6°C° 0 mm 1 mps 732 mmHg 65%
    23:00 +6°C° 0 mm 1 mps 732 mmHg 67%

    23 March, Saturday

    Time Temperature Precipitation Wind Pressure Humidity
    00:00 +6°C° 0 mm 1 mps 732 mmHg 68%
    01:00 +6°C° 0 mm 1 mps 732 mmHg 70%
    02:00 +5°C° 0 mm 1 mps 732 mmHg 71%
    03:00 +5°C° 0 mm 1 mps 732 mmHg 71%
    04:00 +5°C° 0 mm 1 mps 732 mmHg 72%
    05:00 +5°C° 0 mm 1 mps 732 mmHg 70%
    06:00 +6°C° 0 mm 1 mps 732 mmHg 68%
    07:00 +6°C° 0 mm 1 mps 732 mmHg 65%
    08:00 +10°C° 0 mm 1 mps 732 mmHg 56%
    09:00 +12°C° 0 mm 0 mps 732 mmHg 47%
    10:00 +15°C° 0 mm 0 mps 732 mmHg 38%
    11:00 +16°C° 0 mm 0 mps 732 mmHg 36%
    12:00 +19°C° 0 mm 1 mps 732 mmHg 33%
    13:00 +20°C° 0 mm 1 mps 731 mmHg 31%
    14:00 +20°C° 0 mm 1 mps 731 mmHg 32%
    15:00 +19°C° 0 mm 1 mps 730 mmHg 34%
    16:00 +19°C° 0 mm 1 mps 730 mmHg 35%
    17:00 +16°C° 0 mm 1 mps 730 mmHg 43%
    18:00 +13°C° 0 mm 1 mps 730 mmHg 51%
    19:00 +10°C° 0 mm 0 mps 730 mmHg 59%
    20:00 +9°C° 0 mm 0 mps 730 mmHg 61%
    21:00 +10°C° 0 mm 1 mps 731 mmHg 64%
    22:00 +9°C° 0 mm 1 mps 731 mmHg 66%
    23:00 +9°C° 0 mm 1 mps 730 mmHg 68%

    24 March, Sunday

    Time Temperature Precipitation Wind Pressure Humidity
    00:00 +9°C° 0 mm 1 mps 730 mmHg 69%
    01:00 +8°C° 0 mm 1 mps 730 mmHg 71%
    02:00 +8°C° 0 mm 1 mps 730 mmHg 72%
    03:00 +8°C° 0 mm 1 mps 729 mmHg 73%
    04:00 +7°C° 0 mm 1 mps 729 mmHg 74%
    05:00 +8°C° 0 mm 1 mps 729 mmHg 73%
    06:00 +8°C° 0 mm 1 mps 729 mmHg 72%
    07:00 +8°C° 0 mm 1 mps 729 mmHg 71%
    08:00 +11°C° 0 mm 1 mps 729 mmHg 61%
    09:00 +14°C° 0 mm 1 mps 729 mmHg 52%
    10:00 +16°C° 0 mm 0 mps 730 mmHg 42%
    11:00 +19°C° 0 mm 1 mps 729 mmHg 40%
    12:00 +20°C° 0 mm 1 mps 729 mmHg 37%
    13:00 +21°C° 0 mm 1 mps 728 mmHg 34%
    14:00 +20°C° 0 mm 1 mps 728 mmHg 36%
    15:00 +20°C° 0 mm 1 mps 727 mmHg 38%
    16:00 +18°C° 0 mm 2 mps 727 mmHg 40%
    17:00 +16°C° 0 mm 1 mps 727 mmHg 47%
    18:00 +15°C° 0 mm 1 mps 727 mmHg 53%
    19:00 +12°C° 0 mm 0 mps 727 mmHg 60%
    20:00 +13°C° 0 mm 1 mps 728 mmHg 64%
    21:00 +12°C° 0 mm 1 mps 728 mmHg 67%
    22:00 +12°C° 0 mm 1 mps 728 mmHg 71%
    23:00 +11°C° 0 mm 1 mps 728 mmHg 74%

    25 March, Monday

    Time Temperature Precipitation Wind Pressure Humidity
    00:00 +10°C° 0 mm 1 mps 728 mmHg 77%
    01:00 +10°C° 0 mm 1 mps 728 mmHg 81%
    02:00 +9°C° 0 mm 1 mps 728 mmHg 82%
    03:00 +9°C° 0 mm 1 mps 727 mmHg 83%
    04:00 +8°C° 0 mm 1 mps 727 mmHg 84%
    05:00 +9°C° 0 mm 1 mps 727 mmHg 82%
    06:00 +9°C° 0 mm 1 mps 727 mmHg 80%
    07:00 +9°C° 0 mm 1 mps 727 mmHg 79%
    08:00 +12°C° 0 mm 1 mps 727 mmHg 70%
    09:00 +14°C° 0 mm 1 mps 727 mmHg 61%
    10:00 +15°C° 0 mm 0 mps 728 mmHg 53%
    11:00 +16°C° 0.1 mm 1 mps 727 mmHg 52%
    12:00 +16°C° 0.1 mm 1 mps 726 mmHg 50%
    13:00 +16°C° 0.1 mm 1 mps 726 mmHg 49%
    14:00 +16°C° 0.1 mm 2 mps 725 mmHg 48%
    15:00 +16°C° 0.1 mm 2 mps 725 mmHg 46%
    16:00 +15°C° 0.1 mm 2 mps 724 mmHg 45%
    17:00 +13°C° 0 mm 2 mps 724 mmHg 50%
    18:00 +10°C° 0 mm 2 mps 724 mmHg 55%
    19:00 +8°C° 0 mm 2 mps 724 mmHg 60%
    20:00 +8°C° 0 mm 2 mps 724 mmHg 62%
    21:00 +7°C° 0 mm 2 mps 724 mmHg 64%
    22:00 +7°C° 0 mm 2 mps 724 mmHg 67%
    23:00 +8°C° 0 mm 1 mps 724 mmHg 68%
    Show more